Romorantin, France

6:09 AM CET on February 25, 2017 (GMT +0100)
Pruniers Air Base

Weather History for LFYR - March, 2013

Change the Weather History Date:

Friday, March 29, 2013

  Actual Average Record
Temperature  
Mean Temperature 32 °F -  
Max Temperature 39 °F - - ()
Min Temperature 24 °F - - ()
Degree Days  
Heating Degree Days 34    
Moisture  
Dew Point 32 °F    
Average Humidity 90    
Maximum Humidity 100    
Minimum Humidity 75    
Precipitation  
Precipitation 0.00 in - - ()
Sea Level Pressure  
Sea Level Pressure 29.72 in    
Wind  
Wind Speed 3 mph ()    
Max Wind Speed 9 mph    
Max Gust Speed -    
Visibility 3.2 miles    
Events Rain , Snow    
T = Trace of Precipitation, MM = Missing Value Source: Averaged Metar Reports

Daily Weather History Graph

Daily Weather History Graph

Search for Another Location

Airport or City:

Trip Planner

Search our weather history database for the weather conditions in past years. The results will help you decide how hot, cold, wet, or windy it might be!

Date:

Astronomy

Mar. 29, 2013 Rise Set
Actual Time 6:38 AM CET 7:18 PM CET
Civil Twilight 6:07 AM CET 7:49 PM CET
Nautical Twilight 5:30 AM CET 8:26 PM CET
Astronomical Twilight 4:52 AM CET 9:04 PM CET
Moon 10:15 PM CET (3/29) 7:25 AM CET (3/29)
Length of Visible Light 13h 42m
Length of Day
12h 40m
Waning Gibbous, 95% of the Moon is Illuminated
Mar 29
Waning Gibbous
Apr 3
Last Quarter
Apr 10
New
Apr 18
First Quarter
Apr 25
Full

Hourly Weather History & Observations

Time (CET) Temp. Windchill Dew Point Humidity Pressure Visibility Wind Dir Wind Speed Gust Speed Precip Events Conditions
12:00 AM 26.6 °F - 24.8 °F 93% 29.86 in - Calm Calm - N/A   Unknown
1:00 AM 24.8 °F - 23.0 °F 93% 29.83 in - Calm Calm - N/A   Unknown
2:00 AM 26.6 °F - 24.8 °F 93% 29.83 in - Variable 1.2 mph - N/A   Unknown
3:00 AM 26.6 °F - 24.8 °F 93% 29.83 in - Calm Calm - N/A   Unknown
4:00 AM 26.6 °F - 26.6 °F 100% 29.80 in - Calm Calm - N/A   Unknown
5:00 AM 28.4 °F 24.6 °F 26.6 °F 93% 29.77 in - Variable 3.5 mph - N/A   Unknown
6:00 AM 30.2 °F - 26.6 °F 86% 29.77 in 3.7 mi NNE 2.3 mph - N/A   Unknown
7:00 AM 30.2 °F - 26.6 °F 86% 29.77 in 3.1 mi NE 1.2 mph - N/A   Unknown
8:00 AM 32.0 °F 28.7 °F 28.4 °F 87% 29.77 in 3.1 mi NE 3.5 mph - N/A   Unknown
9:00 AM 33.8 °F 28.6 °F 30.2 °F 87% 29.74 in 3.1 mi NE 5.8 mph - N/A   Unknown
10:00 AM 35.6 °F 30.7 °F 30.2 °F 81% 29.74 in 3.7 mi NE 5.8 mph - N/A   Unknown
11:00 AM 37.4 °F 31.4 °F 30.2 °F 75% 29.74 in 3.7 mi ENE 8.1 mph - N/A   Unknown
12:00 PM 37.4 °F 32.1 °F 33.8 °F 87% 29.71 in 3.7 mi ENE 6.9 mph - N/A   Unknown
1:00 PM 37.4 °F 32.1 °F 35.6 °F 93% 29.71 in 1.9 mi ENE 6.9 mph - N/A Rain , Snow Light Rain
2:00 PM 37.4 °F 33.8 °F 35.6 °F 93% 29.71 in - NE 4.6 mph - N/A   Unknown
3:00 PM 39.2 °F 33.6 °F 37.4 °F 93% 29.68 in - ENE 8.1 mph - N/A   Unknown
4:00 PM 39.2 °F 33.0 °F 35.6 °F 87% 29.68 in - ENE 9.2 mph - N/A   Unknown
5:00 PM 39.2 °F 33.6 °F 37.4 °F 93% 29.65 in - ENE 8.1 mph - N/A   Unknown
6:00 PM 39.2 °F 34.2 °F 37.4 °F 93% 29.65 in - ENE 6.9 mph - N/A   Unknown
7:00 PM 39.2 °F 35.9 °F 37.4 °F 93% 29.65 in - ENE 4.6 mph - N/A   Unknown
8:00 PM 39.2 °F 35.0 °F 37.4 °F 93% 29.62 in - NE 5.8 mph - N/A   Unknown
9:00 PM 39.2 °F 35.0 °F 37.4 °F 93% 29.65 in - NE 5.8 mph - N/A   Unknown
10:00 PM 39.2 °F 35.0 °F 37.4 °F 93% 29.62 in - NE 5.8 mph - N/A   Unknown
11:00 PM 39.2 °F 34.2 °F 37.4 °F 93% 29.59 in - NE 6.9 mph - N/A   Unknown